Regional Weather Roundup
Issued by NWS Charleston, SC

Current Version | Previous Version | Graphics & Text | Print | Product List | Glossary On
Versions: 1 2 3 4 5 6 7 8 9 10 11 12 13 14 15 16 17 18 19 20 21 22 23 24 25 26 27 28 29 30 31 32 33 34 35 36 37 38 39 40 41 42 43 44 45 46 47 48 49 50
957
ASUS42 KCHS 232212
RWRCHS

REGIONAL WEATHER ROUNDUP
NATIONAL WEATHER SERVICE CHARLESTON SC
600 PM EDT FRI JUN 23 2017

NOTE: "FAIR" INDICATES FEW OR NO CLOUDS BELOW 12,000 FEET WITH NO
SIGNIFICANT WEATHER AND/OR OBSTRUCTIONS TO VISIBILITY.

NOT ALL STATIONS ARE QUALITY CONTROLLED. USE DATA WITH CAUTION...
ESPECIALLY DEWPOINT OBSERVATIONS.

SCZ027-030-031-034>040-042>050-232300-
...SOUTHEAST SOUTH CAROLINA...

CITY           SKY/WX    TMP DP  RH WIND       PRES   REMARKS
N CHARLESTON   CLOUDY    83  74  74 S16       29.96F
WATERFRONT PRK   N/A     83  78  84 S13       29.95F HX  93
JOHNS ISLAND   CLOUDY    84  77  79 S17       29.97F HX  94
PINOPOLIS        N/A     88  79  74 VRB3      29.88F HX 102
MONCKS CORNER  FAIR      84  75  74 S10       29.95S HX  92
SUMMERVILLE    FAIR      86  75  70 S8G17     29.96S THUNDER HX  95
BEAUFORT MCAS  MOSUNNY   81  78  91 S7        29.95F THUNDER
BEAUFORT ARPT  FAIR      84  75  74 S13G20    29.96S HX  92
HILTON HEAD IS SUNNY     84  77  79 S17       29.98F HX  94
WALTERBORO     PTCLDY    81  73  78 SW8       29.96F
ALLENDALE      FAIR      88  77  70 S8        29.92F HX 100

...SOUTHERN MIDLANDS AND PEE DEE...

CITY           SKY/WX    TMP DP  RH WIND       PRES   REMARKS
GEORGETOWN     FAIR      82  77  83 S12G21    29.97F HX  91
KINGSTREE      MOCLDY    88  73  62 S8        29.93S HX  96
ORANGEBURG     MOSUNNY   91  75  59 SW12      29.92F HX 101
BARNWELL       CLOUDY    93  77  59 S9G15     29.91F HX 107
AIKEN          FAIR      90  70  51 SW14G23   29.95F HX  95
MANNING        FAIR      90  72  55 SW28G33   29.92F HX  96
COLUMBIA       MOSUNNY   93  69  45 SW13G22   29.88F HX  98
SUMTER         SUNNY     92  73  54 S13       29.89F HX 100
FLORENCE       MOSUNNY   91  73  55 S12       29.91F HX  99
MYRTLE BEACH   MOSUNNY   84  75  74 S23       29.95F HX  92
N MYRTLE BEACH SUNNY     83  76  79 S21G30    29.94F HX  91

$$

GAZ063-065-086>088-099>101-113>116-118-119-134>141-150-232300-
...SOUTHEAST GEORGIA...

CITY           SKY/WX    TMP DP  RH WIND       PRES   REMARKS
SAVANNAH ARPT  PTSUNNY   91  75  59 S18       29.95F HX 101
HUNTER AAF     SUNNY     87  77  71 SE13      29.93F HX  99
FORT STEWART   MOSUNNY   92  73  53 SE7       29.92F HX 100
STATESBORO     MOSUNNY   87  76  69 S7        29.94F HX  98
SYLVANIA       CLOUDY    88  80  77 S5        29.95F HX 105
CLAXTON        FAIR      82  76  81 CALM      29.94F HX  90

...CSRA...CENTRAL AND FAR SOUTHEAST GEORGIA...

CITY           SKY/WX    TMP DP  RH WIND       PRES   REMARKS
THOMSON        MOSUNNY   90  72  54 W7G18     29.96F HX  96
AUGUSTA-BUSH   MOSUNNY   93  73  52 SW13      29.90F HX 102
AUGUSTA-DANIEL SUNNY     93  68  43 S14       29.91F HX  97
SWAINSBORO     FAIR      90  75  62 S8        29.94F HX 100
VIDALIA        PTSUNNY   91  75  59 S9        29.94F HX 102
EASTMAN        FAIR      89  64  44 SW10      29.96F HX  90
HAZLEHURST     FAIR      84  81  90 SW7       29.95F HX  98
ALMA           PTSUNNY   83  76  79 CALM      29.96F HX  91
WAYCROSS       MOSUNNY   89  80  73 W5        29.96F HX 107
JESUP          MOCLDY    93  68  43 S9        29.95F HX  97
BAXLEY         CLOUDY    79  79 100 CALM      29.96F
BRUNSWICK      SUNNY     88  77  70 SE13G18   29.98F HX 100
SAINT SIMONS   SUNNY     86  75  69 SE15G22   29.98F HX  95

$$

SCZ027-028-034-036>038-045-046-048>050-GAZ119-141-232300-
...LAKE AND SUPPLEMENTAL COASTAL OBSERVATIONS...

STATION/POSITION TIME  TEMP    WIND        PRES    WAVE   SWELL
                       AIR SEA DIR/SP/G            HT/PER HT/PER/DIR
                 (UTC) (F)     (DEG/KT/KT) (MB)    (FT/S) (FT/S/D)
WINYAH BAY       2045   85     200/ 15     1015.0
LAKE MURRAY      2120   90     230/ 10/ 14 1011.5
ACE BASIN NERRS  NOT AVBL
FORT PULASKI     2148   85 84  190/  7/ 14 1014.9F
SAPELO ISLAND    2100   89     170/ 15     1015.0

$$

ANZ835-935-AMZ111-154-330-350-352-354-370-450-454-472-232300-
...C-MAN AND BUOY OBSERVATIONS...

STATION/POSITION TIME  TEMP    WIND        PRES    WAVE   SWELL
                       AIR SEA DIR/SP/G            HT/PER HT/PER/DIR
                 (UTC) (F)     (DEG/KT/KT) (MB)    (FT/S) (FT/S/D)
BUOY 41004       2150   81 81  210/ 17/ 21 1015.0F   4/ 9   2/150/ 9
BUOY 41008       2150   81 82  160/ 17/ 19 1014.7F   3/ 4   2/120/ 8
FOLLY BEACH CMAN 2100   82     200/ 16/ 18 1016.0F
CAPERS NEARSHORE 2108   86 83  210/ 17/ 23 1014.8F
FRIPP NEARSHORE  2108   82 83  190/ 17/ 23 1014.6F


STATION/POSITION TIME  TEMP    WIND        PRES    WAVE   SWELL
                       AIR SEA DIR/SP/G            HT/PER HT/PER/DIR
                 (UTC) (F)     (DEG/KT/KT) (MB)    (FT/S) (FT/S/D)
5E ST. MARYS GA  2130      81                N/A     3/ 8
FRYING PAN BUOY  2150   82 82  210/ 17/ 21 1014.9F   5/ 9   2/130/ 9
BUOY 41025       2150   81 81  220/ 21/ 23 1013.8F   4/ 4   2/150/ 8
CAPE LOOKOUT NC  2100   82     220/ 15/ 20 1014.1F
BUOY 41002       2050   81 82  200/ 12/ 14 1018.3    4/ 9   3/110/ 9
BUOY 41010       2150   83 83  160/ 10/ 14 1017.3F   5/ 9   5/120/ 9
ST AUGUSTINE FL  2200   80 80  150/ 11/ 13 1016.3F


$$




USA.gov is the U.S. government's official web portal to all federal, state and local government web resources and services.